Kremmling, CO

2:40 PM MST on December 10, 2019 (GMT -0700)
Kremmling

Weather History for K20V - November, 2019

Change the Weather History Date:

Friday, November 22, 2019

  Actual Average Record
Temperature  
Mean Temperature 22 °F -  
Max Temperature 34 °F - 60 °F (2006)
Min Temperature 8 °F - -7 °F (2007)
Degree Days  
Heating Degree Days 44    
Month to date heating degree days 727  
Cooling Degree Days 0    
Month to date cooling degree days 0  
Moisture  
Dew Point 25 °F    
Average Humidity 89    
Maximum Humidity 100    
Minimum Humidity 65    
Precipitation  
Precipitation 0.00 in - 0.00 in (2019)
Snow  
Snow 0.00 in - - ()
Snow Depth 0.00 in    
Sea Level Pressure  
Sea Level Pressure 30.10 in    
Wind  
Wind Speed 2 mph ()    
Max Wind Speed 8 mph    
Max Gust Speed -    
Visibility 6.5 miles    
Events Rain , Snow    
T = Trace of Precipitation, MM = Missing Value Source: Averaged Metar Reports

Daily Weather History Graph

Daily Weather History Graph

Search for Another Location

Airport or City:

Astronomy

Nov. 22, 2019 Rise Set
Actual Time 6:58 AM MST 4:44 PM MST
Civil Twilight 6:29 AM MST 5:13 PM MST
Nautical Twilight 5:55 AM MST 5:46 PM MST
Astronomical Twilight 5:23 AM MST 6:19 PM MST
Moon 2:07 AM MST (11/22) 2:46 PM MST (11/22)
Length of Visible Light 10h 44m
Length of Day
9h 45m
Waning Crescent, 19% of the Moon is Illuminated
Nov 22
Waning Crescent
Nov 26
New
Dec 3
First Quarter
Dec 11
Full
Dec 18
Last Quarter

Hourly Weather History & Observations

Time (MST) Temp. Windchill Dew Point Humidity Pressure Visibility Wind Dir Wind Speed Gust Speed Precip Events Conditions
12:12 AM 32.0 °F - 32.0 °F 100% 29.98 in 3.0 mi Calm Calm - N/A Snow Light Snow
12:30 AM 32.0 °F - 32.0 °F 100% 29.98 in 4.0 mi Calm Calm - N/A Snow Light Snow
12:48 AM 32.0 °F - 32.0 °F 100% 29.98 in 3.0 mi Calm Calm - N/A Rain Light Rain
1:08 AM 32.0 °F - 32.0 °F 100% 29.98 in 3.0 mi Calm Calm - N/A Snow Light Snow
1:33 AM 32.0 °F - 32.0 °F 100% 29.98 in 2.5 mi Calm Calm - N/A Snow Light Snow
1:50 AM 32.0 °F - 32.0 °F 100% 29.99 in 2.5 mi Calm Calm - N/A Snow Light Snow
2:12 AM 32.0 °F - 32.0 °F 100% 29.99 in 2.0 mi Calm Calm - N/A Snow Light Snow
2:30 AM 32.0 °F - 32.0 °F 100% 29.99 in 1.8 mi Calm Calm - N/A Snow Light Snow
2:53 AM 32.0 °F - 32.0 °F 100% 29.99 in 3.0 mi Calm Calm - N/A Snow Light Snow
3:12 AM 32.0 °F 28.7 °F 32.0 °F 100% 29.99 in 3.0 mi West 3.5 mph - N/A Snow Light Snow
3:30 AM 32.0 °F 28.7 °F 32.0 °F 100% 29.99 in 5.0 mi SW 3.5 mph - N/A Snow Light Snow
3:53 AM 32.0 °F - 32.0 °F 100% 29.99 in 5.0 mi Calm Calm - N/A Snow Light Snow
4:11 AM 32.0 °F 28.7 °F 32.0 °F 100% 29.99 in 2.0 mi West 3.5 mph - N/A Snow Light Snow
4:29 AM 32.0 °F - 32.0 °F 100% 30.00 in 3.0 mi Calm Calm - N/A Snow Light Snow
4:53 AM 30.2 °F 24.3 °F 30.2 °F 100% 30.01 in 3.0 mi West 5.8 mph - N/A Snow Light Snow
5:12 AM 30.2 °F 23.4 °F 28.4 °F 93% 30.02 in 2.0 mi WSW 6.9 mph - N/A Snow Light Snow
5:30 AM 30.2 °F 25.4 °F 28.4 °F 93% 30.02 in 2.0 mi WNW 4.6 mph - N/A Snow Light Snow
5:48 AM 30.2 °F 24.3 °F 28.4 °F 93% 30.04 in 2.0 mi West 5.8 mph - N/A Snow Light Snow
6:12 AM 30.2 °F - 28.4 °F 93% 30.04 in 1.8 mi Calm Calm - N/A Snow Light Snow
6:30 AM 30.2 °F - 28.4 °F 93% 30.05 in 1.8 mi Calm Calm - N/A Snow Light Snow
7:12 AM 30.2 °F - 30.2 °F 100% 30.06 in 1.0 mi Calm Calm - N/A Snow Light Snow
7:30 AM 30.2 °F 26.7 °F 30.2 °F 100% 30.06 in 1.5 mi West 3.5 mph - N/A Snow Light Snow
7:48 AM 30.2 °F 26.7 °F 28.4 °F 93% 30.07 in 1.8 mi West 3.5 mph - N/A Snow Light Snow
8:12 AM 30.2 °F 24.3 °F 28.4 °F 93% 30.07 in 1.0 mi WSW 5.8 mph - N/A Snow Light Snow
8:30 AM 30.2 °F 26.7 °F 28.4 °F 93% 30.08 in 0.5 mi SSW 3.5 mph - N/A Snow Snow
8:48 AM 30.2 °F 26.7 °F 28.4 °F 93% 30.08 in 0.8 mi South 3.5 mph - N/A Snow Light Snow
9:12 AM 30.2 °F - 28.4 °F 93% 30.09 in 1.2 mi Calm Calm - N/A Snow Light Snow
9:30 AM 30.2 °F - 28.4 °F 93% 30.10 in 2.5 mi Calm Calm - N/A Snow Light Snow
9:48 AM 30.2 °F - 28.4 °F 93% 30.10 in 5.0 mi Calm Calm - N/A Snow Light Snow
10:30 AM 30.2 °F - 26.6 °F 86% 30.11 in 7.0 mi Calm Calm - N/A Snow Light Snow
10:48 AM 30.2 °F - 28.4 °F 93% 30.11 in 5.0 mi Calm Calm - N/A Snow Light Snow
11:12 AM 30.2 °F - 26.6 °F 86% 30.11 in 10.0 mi Calm Calm - N/A Snow Light Snow
11:30 AM 30.2 °F 26.7 °F 26.6 °F 86% 30.10 in 10.0 mi SW 3.5 mph - N/A   Overcast
11:48 AM 30.2 °F 26.7 °F 28.4 °F 93% 30.09 in 10.0 mi WSW 3.5 mph - N/A   Overcast
12:12 PM 32.0 °F - 28.4 °F 87% 30.09 in 10.0 mi Calm Calm - N/A   Overcast
12:30 PM 32.0 °F - 28.4 °F 87% 30.09 in 10.0 mi Calm Calm - N/A   Overcast
12:48 PM 32.0 °F - 28.4 °F 87% 30.09 in 10.0 mi Calm Calm - N/A   Overcast
1:12 PM 32.0 °F 28.7 °F 26.6 °F 80% 30.08 in 10.0 mi WNW 3.5 mph - N/A   Overcast
1:48 PM 33.8 °F 27.0 °F 26.6 °F 75% 30.09 in 10.0 mi NNW 8.1 mph - N/A   Overcast
2:11 PM 33.8 °F 29.6 °F 26.6 °F 75% 30.09 in 10.0 mi North 4.6 mph - N/A   Overcast
2:29 PM 33.8 °F - 26.6 °F 75% 30.10 in 10.0 mi Calm Calm - N/A   Overcast
2:53 PM 33.8 °F 27.0 °F 24.8 °F 70% 30.11 in 10.0 mi NW 8.1 mph - N/A   Overcast
3:12 PM 33.8 °F 27.0 °F 24.8 °F 70% 30.11 in 10.0 mi NNW 8.1 mph - N/A   Overcast
3:30 PM 33.8 °F 27.7 °F 23.0 °F 65% 30.12 in 10.0 mi NNW 6.9 mph - N/A   Overcast
3:48 PM 32.0 °F 27.5 °F 24.8 °F 75% 30.12 in 10.0 mi NNW 4.6 mph - N/A   Overcast
4:12 PM 32.0 °F 26.4 °F 23.0 °F 69% 30.12 in 10.0 mi NNW 5.8 mph - N/A   Overcast
4:29 PM 32.0 °F 28.7 °F 23.0 °F 69% 30.13 in 10.0 mi NNW 3.5 mph - N/A   Overcast
4:53 PM 30.2 °F 25.4 °F 23.0 °F 75% 30.14 in 10.0 mi NNW 4.6 mph - N/A   Overcast
5:12 PM 30.2 °F 26.7 °F 21.2 °F 69% 30.15 in 10.0 mi NW 3.5 mph - N/A   Scattered Clouds
5:30 PM 28.4 °F 24.6 °F 23.0 °F 80% 30.16 in 10.0 mi North 3.5 mph - N/A   Clear
5:48 PM 26.6 °F - 21.2 °F 80% 30.16 in 10.0 mi Calm Calm - N/A   Mostly Cloudy
6:12 PM 26.6 °F 21.2 °F 23.0 °F 86% 30.17 in 10.0 mi NNE 4.6 mph - N/A   Overcast
6:48 PM 26.6 °F - 21.2 °F 80% 30.18 in 10.0 mi Calm Calm - N/A   Scattered Clouds
7:30 PM 21.2 °F - 19.4 °F 93% 30.21 in 10.0 mi Calm Calm - N/A   Clear
7:48 PM 19.4 °F - 17.6 °F 93% 30.21 in 10.0 mi Calm Calm - N/A   Scattered Clouds
8:12 PM 17.6 °F - 14.0 °F 86% 30.22 in 10.0 mi Calm Calm - N/A   Mostly Cloudy
8:48 PM 17.6 °F - 14.0 °F 86% 30.24 in 10.0 mi Calm Calm - N/A   Mostly Cloudy
9:12 PM 12.2 °F - 10.4 °F 92% 30.24 in 10.0 mi Calm Calm - N/A   Clear
9:30 PM 14.0 °F - 12.2 °F 93% 30.25 in 10.0 mi Calm Calm - N/A   Clear
9:48 PM 12.2 °F - 10.4 °F 92% 30.25 in 10.0 mi Calm Calm - N/A   Clear
10:11 PM 12.2 °F - 10.4 °F 92% 30.26 in 10.0 mi Calm Calm - N/A   Clear
10:29 PM 12.2 °F 6.1 °F 10.4 °F 92% 30.26 in 10.0 mi ESE 3.5 mph - N/A   Clear
10:47 PM 10.4 °F - 8.6 °F 92% 30.27 in 10.0 mi Calm Calm - N/A   Clear
11:12 PM 10.4 °F - 8.6 °F 92% 30.29 in 10.0 mi Calm Calm - N/A   Clear
11:47 PM 8.6 °F - 6.8 °F 92% 30.29 in 10.0 mi Calm Calm - N/A   Scattered Clouds